User: anonymous   Login
Location: Igri�s
(42.2144°N, 0.4320°W)
Time: 18:17:54
(UTC+00:00)
Language:

Cosmos 676 Rocket - Orbit

View from above orbital plane
View from above orbital plane
View from above satellite
View from above satellite

Ground track
Ground track

The orbit data is extracted from the following two-line orbital elements,

1  7434U 74071B   20298.26301771  .00000087  00000-0  38211-4 0  9999
2  7434  74.0447 124.0239 0019685  92.0068 268.3340 14.36746931412648
Epoch (UTC): 24 October 2020 06:18:44
Eccentricity: 0.0019685
inclination: 74.0447°
perigee height: 755 km
apogee height: 783 km
right ascension of ascending node: 124.0239°
argument of perigee: 92.0068°
revolutions per day: 14.36746931
mean anomaly at epoch: 268.3340°
orbit number at epoch: 41264

The dashed part of the orbit path shows where the satellite is in the earth's shadow,  

DLR